Volver al catálogo

NAVSTAR 28

USA 85

ActivoNavegaciónMEO
NORAD 22231·PAYLOAD·🇺🇸 United States

Lanzado Nov 22, 1992 desde Cape Canaveral Space Force Station

Loading…

Próximos Pases (próximas 24 horas)

TLE

ActualizadoSource: Space-Track

Época: Sep 13, 2026, 20:39 UTC

1 22231U 92079A   26256.86064584  .00000006  00000-0  00000-0 0  9995
2 22231  55.5949 110.7632 0024748   8.3814 351.7499  1.89108681 63816

Sigue NAVSTAR 28 en tiempo real con AllMySat

Download on the App Store